CYGFM04

Last updated on Tue Sep 22 2026 00:02:53 GMT+0000 (Coordinated Universal Time)

1 41885U 16078B 26264.51616954 .00028234 00000+0 25387-3 0 9991 2 41885 34.9316 302.8981 0003121 59.2978 300.8057 15.67180252544094
UTC large
Height (km)
Speed (km/s)
/
Latitude / Longitude
Inclination (degrees)
Orbital Period (minutes)
Azimuth
Elevation
Range (km)
Doppler Factor

Next 0 passes for location: London (51.5072 / 0.1276)

No passes found over London.
CYGFM04